Location: Bothwell
(42.3833°S, 147.0000°E)
Time: 05:51:08
(UTC+11:00)

Envisat - Visible Passes

Search period start: 25 March 2023 00:00
Search period end: 03 April 2023 23:00
Orbit: 763 x 765 km, 98.2° (Epoch: 24 March)

Date Brightness Start Highest point End Pass type
(mag) Time Alt. Az. Time Alt. Az. Time Alt. Az.
25 Mar 6.0 02:45:21 11° SE 02:45:21 11° SE 02:45:51 10° SE visible
25 Mar 4.9 04:25:32 21° SSW 04:25:32 21° SSW 04:27:12 10° SSW visible
26 Mar 5.2 03:48:12 20° S 03:48:12 20° S 03:49:52 10° S visible
27 Mar 5.7 03:10:52 14° SSE 03:10:52 14° SSE 03:11:58 10° SSE visible
27 Mar 5.1 04:51:03 15° SSW 04:51:03 15° SSW 04:51:55 10° SSW visible
28 Mar 5.2 04:13:43 17° S 04:13:43 17° S 04:14:53 10° S visible
29 Mar 5.6 03:36:23 15° SSE 03:36:23 15° SSE 03:37:24 10° S visible
30 Mar 6.0 02:59:02 10° SSE 02:59:02 10° SSE 02:59:12 10° SSE visible
30 Mar 5.4 04:39:14 13° SSW 04:39:14 13° SSW 04:39:42 10° SSW visible
31 Mar 5.5 04:01:53 13° S 04:01:53 13° S 04:02:30 10° S visible
01 Apr 5.9 03:24:32 11° SSE 03:24:32 11° SSE 03:24:50 10° S visible
02 Apr 5.6 03:27:22 10° SSW 03:27:22 10° SSW 03:27:23 10° SSW visible
03 Apr 5.8 02:50:01 10° S 02:50:01 10° S 02:50:03 10° S visible
